Find Equator-S

NORAD ID: 25068 Int'l Des: 1997-075 Owner: MPE Country: D operational
MEOELLIPTICALHEO_ELLIPTICAL

リアルタイム位置

3D地球を読み込み中...

Equator-Sについて

説明を読み込み中...

次回通過

Passes for default location (London). Set your location on the main map for personalized predictions.

高度履歴

Loading altitude history...

軌道要素

1 25068U 97075B 26103.23832833 -.00000352 00000-0 -22974-3 0 9992
2 25068 4.9088 258.6471 8261459 332.6154 1.0875 1.07777062111768
Epoch: Apr 13, 2026 • Age: 40 hours

現在のステータス

高度 45180.9 km
速度 2.35 km/s
衛星直下点 0.17°N, 99.13°W
打ち上げ日 Dec 2, 1997
運用期間 28.3 years
タイプ other

技術仕様

分類 Payload
質量 197.00 kg
乾燥質量 197.00 kg
総質量 230.00 kg
長さ 1.30 m
直径 1.50 m
スパン 5.00 m
形状 Cyl + 2 Ant
製造者 MPE
バスタイプ Equator-S
フェーズステータス In Orbit
所有者/国 MPE/D

Most Searched